Regional Weather Roundup
Issued by NWS Goodland, KS

Home | Current Version | Previous Version | Graphics & Text | Print | Product List | Glossary On
Versions: 1 2 3 4 5 6 7 8 9 10 11 12 13 14 15 16 17 18 19 20 21 22 23 24 25 26 27 28 29 30 31 32 33 34 35 36 37 38 39 40 41 42 43 44 45 46 47 48 49 50
492
ASUS43 KGLD 201859
RWRGLD

GOODLAND FORECAST AREA HOURLY WEATHER ROUNDUP
NATIONAL WEATHER SERVICE GOODLAND KS
100 PM MDT SUN AUG 20 2017

...OFFICIAL OBSERVATIONS...

CITY           SKY/WX    TMP DP  RH WIND       PRES   REMARKS
GOODLAND KS    CLOUDY    89  57  33 E3        29.98F
HILL CITY KS   MOSUNNY   96  63  33 S10       29.91F
IMPERIAL NEB   SUNNY     86  62  44 E9        29.97S
MCCOOK NEB     SUNNY     89  60  37 E6        29.92F
AKRON CO       SUNNY     86  52  30 N12       30.07F
BURLINGTON CO  CLOUDY    88  55  32 E5        30.03S
LIMON CO       CLOUDY    85  44  23 NE8       30.12S
$$

...UNOFFICIAL OBSERVATIONS...

CITY           SKY/WX    TMP DP  RH WIND       PRES   REMARKS
LENORA KS        N/A     93  32  11 SW5         N/A
NORTON KS      SUNNY     95  54  24 SE8       29.90F
TRENTON NEB      N/A     85  32  15 CALM        N/A
KIT CARSON CO    N/A     88  55  32 MISG        N/A
YUMA CO        FAIR      82  46  28 NE8       30.03S
$$




USA.gov is the U.S. government's official web portal to all federal, state and local government web resources and services.